Location: Miami
(25.7742°N, 80.1936°W)
Time: 00:34:35
(UTC-04:00)

ISS - Pass Details

Date: 19 June 2025
Orbit: 413 x 417 km, 51.6° (Epoch: 16 July)

Event Time Altitude Azimuth Distance (km) Brightness Sun altitude
Exits shadow 05:30:20 15° 276° (W) 1,225 -1.8 -12.4°
Maximum altitude 05:32:07 22° 317° (NW) 967 -2.0 -12.1°
Drops below altitude 10° 05:34:48 10° 10° (N) 1,492 -0.3 -11.6°
Sets 05:37:13 0° 27° (NNE) 2,358 1.2 -11.1°
